Weather History for KRAP - February, 2014

Change the Weather History Date:

Friday, February 7, 2014

  Actual Average Record
Temperature  
Mean Temperature 0 °F 26 °F  
Max Temperature 18 °F 38 °F 73 °F (1987)
Min Temperature -19 °F 14 °F -22 °F (1971)
Degree Days  
Heating Degree Days 65 39  
Month to date heating degree days 429 274  
Since 1 July heating degree days 4774 4430  
Cooling Degree Days 0 0  
Month to date cooling degree days 0 0  
Year to date cooling degree days 0 0  
Moisture  
Dew Point -3 °F    
Average Humidity 72    
Maximum Humidity 89    
Minimum Humidity 54    
Precipitation  
Precipitation 0.02 in 0.02 in 0.23 in (1967)
Month to date precipitation 0.09 0.08  
Year to date precipitation 0.29 0.38  
Snow  
Snow 0.40 in 0.10 in 3.00 in (2011)
Month to date snowfall 2.0 1.1  
Since 1 July snowfall 38.6 18.7  
Snow Depth 1.00 in    
Sea Level Pressure  
Sea Level Pressure 30.02 in    
Wind  
Wind Speed 8 mph (NE)    
Max Wind Speed 20 mph    
Max Gust Speed 24 mph    
Visibility 8 miles    
Events Snow    
T = Trace of Precipitation, MM = Missing Value Source: NWS Daily Summary

Daily Weather History Graph

Daily Weather History Graph

Search for Another Location

Airport or City:

Trip Planner

Search our weather history database for the weather conditions in past years. The results will help you decide how hot, cold, wet, or windy it might be!

Date:

Astronomy

Feb. 07, 2014 Rise Set
Actual Time 7:02 AM MST 5:10 PM MST
Civil Twilight 6:32 AM MST 5:41 PM MST
Nautical Twilight 5:58 AM MST 6:15 PM MST
Astronomical Twilight 5:24 AM MST 6:49 PM MST
Moon 11:21 AM MST (2/7) 1:22 AM MST (2/7)
Length of Visible Light 11h 08m
Length of Day
10h 08m
First Quarter, 60% of the Moon is Illuminated
Feb 7
First Quarter
Feb 14
Full
Feb 22
Last Quarter
Mar 1
New
Mar 8
First Quarter

Hourly Weather History & Observations

Time (MST) Temp. Windchill Dew Point Humidity Pressure Visibility Wind Dir Wind Speed Gust Speed Precip Events Conditions
12:52 AM -16.1 °F - -20.0 °F 82% 30.26 in 10.0 mi Calm Calm - N/A   Clear
1:52 AM -16.1 °F - -20.9 °F 79% 30.24 in 10.0 mi Calm Calm - N/A   Clear
2:52 AM -17.0 °F - -20.9 °F 82% 30.22 in 10.0 mi Calm Calm - N/A   Clear
3:52 AM -16.1 °F - -22.0 °F 74% 30.21 in 10.0 mi Calm Calm - N/A   Clear
4:52 AM -16.1 °F - -20.0 °F 82% 30.20 in 10.0 mi Calm Calm - N/A   Clear
5:52 AM -17.0 °F - -22.0 °F 78% 30.20 in 10.0 mi Calm Calm - N/A   Clear
6:52 AM -14.1 °F - -18.0 °F 82% 30.18 in 10.0 mi Calm Calm - N/A   Clear
7:52 AM -8.0 °F - -13.0 °F 79% 30.17 in 10.0 mi Calm Calm - N/A   Clear
8:52 AM 1.9 °F - -4.0 °F 76% 30.14 in 10.0 mi Calm Calm - N/A   Clear
9:52 AM 1.9 °F -9.2 °F -4.0 °F 76% 30.14 in 10.0 mi SE 5.8 mph - N/A   Clear
10:52 AM 3.9 °F -8.2 °F -4.0 °F 70% 30.12 in 10.0 mi ESE 6.9 mph - N/A   Clear
11:52 AM 8.1 °F -6.2 °F 1.0 °F 73% 30.08 in 10.0 mi SE 10.4 mph - N/A   Clear
12:52 PM 12.9 °F -1.6 °F 1.9 °F 62% 30.03 in 10.0 mi SSE 12.7 mph - N/A   Clear
1:52 PM 17.1 °F 3.6 °F 3.9 °F 56% 29.99 in 10.0 mi SSE 12.7 mph - N/A   Clear
2:52 PM 17.1 °F 1.0 °F 6.1 °F 62% 29.98 in 10.0 mi SSE 18.4 mph - N/A   Clear
3:52 PM 17.1 °F 2.5 °F 6.1 °F 62% 29.97 in 10.0 mi SSE 15.0 mph - N/A   Partly Cloudy
4:52 PM 17.1 °F 1.5 °F 7.0 °F 65% 29.93 in 10.0 mi SE 17.3 mph - N/A   Overcast
5:52 PM 12.9 °F 2.6 °F 6.1 °F 74% 29.98 in 10.0 mi SSE 6.9 mph - N/A   Scattered Clouds
6:52 PM 10.0 °F 3.6 °F 3.9 °F 76% 29.98 in 10.0 mi ENE 3.5 mph - N/A   Clear
7:52 PM 10.9 °F -3.4 °F 5.0 °F 77% 29.98 in 10.0 mi NNE 11.5 mph - N/A   Mostly Cloudy
8:52 PM 10.9 °F -4.7 °F 7.0 °F 84% 29.98 in 0.8 mi North 13.8 mph - 0.00 in Snow Light Snow
8:55 PM 10.4 °F -4.8 °F 6.8 °F 85% 29.77 in 1.0 mi North 12.7 mph - 0.01 in Snow Light Snow
9:02 PM 10.4 °F -5.4 °F 6.8 °F 85% 29.78 in 0.8 mi North 13.8 mph - 0.01 in Snow Light Snow
9:10 PM 10.4 °F -4.8 °F 6.8 °F 85% 29.75 in 1.2 mi NNE 12.7 mph - 0.02 in Snow Light Snow
9:27 PM 8.6 °F -4.7 °F 5.0 °F 85% 29.77 in 3.0 mi NNW 9.2 mph - 0.02 in Snow Light Snow
9:43 PM 8.6 °F -5.5 °F 3.2 °F 79% 29.78 in 2.5 mi NNW 10.4 mph - 0.02 in Snow Light Snow
9:52 PM 8.1 °F -7.0 °F 3.9 °F 83% 29.99 in 2.0 mi NNW 11.5 mph - 0.02 in Snow Light Snow
9:57 PM 8.6 °F -7.0 °F 3.2 °F 79% 29.78 in 3.0 mi North 12.7 mph - 0.00 in Snow Light Snow
10:06 PM 6.8 °F -9.3 °F 3.2 °F 85% 29.79 in 6.0 mi NNW 12.7 mph - 0.00 in   Mostly Cloudy
10:13 PM 6.8 °F -9.3 °F 1.4 °F 79% 29.79 in 7.0 mi NNW 12.7 mph - 0.00 in   Scattered Clouds
10:52 PM 5.0 °F -10.8 °F 1.9 °F 87% 30.01 in 3.0 mi NNW 11.5 mph - 0.00 in   Mostly Cloudy
11:52 PM 5.0 °F -10.8 °F 1.0 °F 84% 30.02 in 10.0 mi NNW 11.5 mph - N/A   Clear